| time (UTC) | temp F | wind direction | speed MPH | gust MPH | rain 1hr in | rain 24hr in | rain mn in | humidity % | barometer mb |
| 20260506044538 | 53 | 355 | 3.0 | 8.0 | 0.12 | 0.62 | 0.60 | 96 | 1001.8 |
| 20260506043027 | 53 | 326 | 3.0 | 9.0 | 0.11 | 0.59 | 0.56 | 96 | 1001.8 |
| 20260506041526 | 52 | 344 | 3.0 | 11.0 | 0.10 | 0.56 | 0.54 | 96 | 1002.0 |
| 20260506040046 | 53 | 15 | 4.0 | 9.0 | 0.07 | 0.53 | 0.51 | 96 | 1002.1 |
| 20260506034520 | 53 | 40 | 4.0 | 8.0 | 0.06 | 0.50 | 0.48 | 96 | 1002.2 |
| 20260506033017 | 53 | 5 | 4.0 | 9.0 | 0.05 | 0.48 | 0.46 | 96 | 1002.3 |
| 20260506031530 | 53 | 44 | 3.0 | 10.0 | 0.04 | 0.46 | 0.44 | 96 | 1002.5 |
| 20260506030013 | 53 | 24 | 2.0 | 10.0 | 0.07 | 0.46 | 0.44 | 96 | 1002.6 |
| 20260506024517 | 53 | 360 | 2.0 | 10.0 | 0.07 | 0.44 | 0.42 | 96 | 1002.8 |
| 20260506023010 | 53 | 9 | 2.0 | 6.0 | 0.07 | 0.43 | 0.41 | 96 | 1002.9 |
| 20260506021509 | 53 | 26 | 3.0 | 6.0 | 0.08 | 0.42 | 0.40 | 96 | 1003.1 |
| 20260506020005 | 53 | 54 | 4.0 | 6.0 | 0.07 | 0.39 | 0.37 | 96 | 1003.2 |
| 20260506014506 | 53 | 55 | 3.0 | 10.0 | 0.09 | 0.37 | 0.35 | 95 | 1003.4 |
| 20260506013003 | 53 | 5 | 2.0 | 9.0 | 0.09 | 0.35 | 0.33 | 95 | 1003.4 |
| 20260506011502 | 53 | 58 | 3.0 | 9.0 | 0.14 | 0.34 | 0.32 | 95 | 1003.4 |
| 20260506010000 | 54 | 10 | 3.0 | 9.0 | 0.16 | 0.32 | 0.30 | 95 | 1003.3 |
| 20260506004600 | 54 | 360 | 3.0 | 6.0 | 0.16 | 0.28 | 0.26 | 95 | 1003.4 |
| 20260506003056 | 54 | 51 | 4.0 | 9.0 | 0.17 | 0.26 | 0.24 | 94 | 1003.8 |
| 20260506001554 | 54 | 48 | 5.0 | 10.0 | 0.13 | 0.20 | 0.18 | 94 | 1003.9 |
| 20260506000050 | 54 | 67 | 3.0 | 8.0 | 0.10 | 0.16 | 0.14 | 94 | 1004.1 |
| 20260505234556 | 54 | 9 | 4.0 | 9.0 | 0.06 | 0.12 | 0.10 | 94 | 1004.4 |
| 20260505233048 | 55 | 48 | 3.0 | 7.0 | 0.04 | 0.09 | 0.07 | 93 | 1004.5 |
| 20260505231550 | 55 | 53 | 4.0 | 7.0 | 0.04 | 0.07 | 0.05 | 93 | 1004.7 |
| 20260505230040 | 55 | 56 | 3.0 | 5.0 | 0.04 | 0.06 | 0.04 | 93 | 1004.7 |
| 20260505224539 | 55 | 47 | 2.0 | 5.0 | 0.04 | 0.06 | 0.04 | 92 | 1004.8 |
| 20260505223048 | 56 | 55 | 3.0 | 9.0 | 0.03 | 0.05 | 0.03 | 91 | 1004.9 |
| 20260505221536 | 56 | 49 | 2.0 | 9.0 | 0.01 | 0.03 | 0.01 | 90 | 1004.9 |
| 20260505220039 | 57 | 57 | 2.0 | 9.0 | 0.00 | 0.02 | 0.00 | 88 | 1004.8 |
| 20260505214536 | 57 | 28 | 4.0 | 9.0 | 0.00 | 0.02 | 0.02 | 87 | 1004.8 |
| 20260505213030 | 58 | 43 | 5.0 | 13.0 | 0.00 | 0.02 | 0.02 | 87 | 1004.7 |
| 20260505211528 | 58 | 51 | 4.0 | 12.0 | 0.00 | 0.02 | 0.02 | 86 | 1004.7 |
| 20260505210029 | 59 | 42 | 3.0 | 9.0 | 0.00 | 0.02 | 0.02 | 86 | 1004.7 |
| 20260505204533 | 59 | 55 | 3.0 | 9.0 | 0.00 | 0.02 | 0.02 | 86 | 1004.7 |
| 20260505203031 | 59 | 51 | 6.0 | 10.0 | 0.00 | 0.02 | 0.02 | 86 | 1004.7 |
| 20260505201525 | 59 | 43 | 3.0 | 5.0 | 0.00 | 0.02 | 0.02 | 85 | 1004.8 |
| 20260505200036 | 60 | 59 | 2.0 | 4.0 | 0.01 | 0.02 | 0.02 | 85 | 1004.8 |
| 20260505194631 | 60 | 80 | 3.0 | 5.0 | 0.01 | 0.02 | 0.02 | 84 | 1004.8 |
| 20260505193023 | 60 | 71 | 2.0 | 6.0 | 0.01 | 0.02 | 0.02 | 84 | 1004.7 |
| 20260505191523 | 61 | 67 | 3.0 | 7.0 | 0.01 | 0.02 | 0.02 | 83 | 1004.8 |
| 20260505190024 | 61 | 5 | 3.0 | 7.0 | 0.00 | 0.01 | 0.01 | 82 | 1004.7 |
| 20260505184624 | 61 | 36 | 3.0 | 6.0 | 0.00 | 0.01 | 0.01 | 81 | 1004.7 |
| 20260505183020 | 62 | 44 | 4.0 | 9.0 | 0.00 | 0.01 | 0.01 | 80 | 1004.7 |
| 20260505181520 | 63 | 39 | 3.0 | 7.0 | 0.00 | 0.01 | 0.01 | 80 | 1004.7 |
| 20260505180019 | 63 | 44 | 5.0 | 12.0 | 0.00 | 0.01 | 0.01 | 78 | 1004.6 |
| 20260505174520 | 64 | 30 | 5.0 | 12.0 | 0.00 | 0.01 | 0.01 | 76 | 1004.5 |
| 20260505173017 | 65 | 5 | 4.0 | 9.0 | 0.00 | 0.01 | 0.01 | 73 | 1004.6 |
| 20260505171521 | 65 | 16 | 3.0 | 5.0 | 0.00 | 0.01 | 0.01 | 70 | 1004.5 |
| 20260505170018 | 65 | 11 | 2.0 | 5.0 | 0.00 | 0.01 | 0.01 | 70 | 1004.7 |
| 20260505164514 | 65 | 63 | 2.0 | 6.0 | 0.00 | 0.01 | 0.01 | 69 | 1004.8 |
| 20260505163012 | 66 | 5 | 4.0 | 8.0 | 0.00 | 0.01 | 0.01 | 69 | 1004.8 |
| 20260505161510 | 66 | 9 | 2.0 | 4.0 | 0.00 | 0.01 | 0.01 | 71 | 1005.0 |
| 20260505153006 | 66 | 48 | 1.0 | 5.0 | 0.00 | 0.01 | 0.01 | 72 | 1005.4 |
| 20260505151505 | 65 | 45 | 2.0 | 5.0 | 0.00 | 0.01 | 0.01 | 72 | 1005.4 |
| 20260505130109 | 65 | 53 | 1.0 | 4.0 | 0.00 | 0.01 | 0.01 | 77 | 1006.1 |
| 20260505124556 | 65 | 86 | 2.0 | 6.0 | 0.00 | 0.01 | 0.01 | 78 | 1006.4 |
| 20260505123047 | 64 | 167 | 2.0 | 4.0 | 0.00 | 0.01 | 0.01 | 82 | 1006.5 |
| 20260505121547 | 63 | 62 | 0.0 | 4.0 | 0.00 | 0.01 | 0.01 | 86 | 1006.6 |
| 20260505120039 | 61 | 165 | 1.0 | 5.0 | 0.00 | 0.01 | 0.01 | 88 | 1006.7 |
| 20260505114537 | 61 | 142 | 1.0 | 3.0 | 0.00 | 0.01 | 0.01 | 88 | 1006.8 |
| 20260505113036 | 61 | 147 | 1.0 | 2.0 | 0.00 | 0.01 | 0.01 | 89 | 1006.9 |
| 20260505111539 | 61 | 147 | 0.0 | 3.0 | 0.00 | 0.01 | 0.01 | 88 | 1007.0 |
| 20260505101533 | 61 | 121 | 1.0 | 3.0 | 0.01 | 0.01 | 0.01 | 87 | 1007.1 |
| 20260505100032 | 60 | 213 | 0.0 | 1.0 | 0.01 | 0.01 | 0.01 | 87 | 1007.2 |
| 20260505094534 | 60 | 213 | 1.0 | 3.0 | 0.00 | 0.00 | 0.00 | 86 | 1007.2 |
| 20260505093029 | 60 | 330 | 1.0 | 2.0 | 0.00 | 0.00 | 0.00 | 85 | 1007.1 |
| 20260505091529 | 60 | 329 | 0.0 | 2.0 | 0.00 | 0.00 | 0.00 | 85 | 1007.1 |
| 20260505090030 | 60 | 329 | 0.0 | 1.0 | 0.00 | 0.00 | 0.00 | 85 | 1007.2 |
| 20260505084527 | 60 | 329 | 1.0 | 2.0 | 0.00 | 0.00 | 0.00 | 86 | 1007.3 |
| 20260505083025 | 59 | 329 | 0.0 | 2.0 | 0.00 | 0.00 | 0.00 | 86 | 1007.3 |
| 20260505081539 | 59 | 329 | 1.0 | 3.0 | 0.00 | 0.00 | 0.00 | 87 | 1007.3 |
| 20260505080023 | 58 | 329 | 1.0 | 2.0 | 0.00 | 0.00 | 0.00 | 88 | 1007.5 |
| 20260505074522 | 58 | 329 | 0.0 | 3.0 | 0.00 | 0.00 | 0.00 | 89 | 1007.5 |
| 20260505073025 | 57 | 98 | 0.0 | 3.0 | 0.00 | 0.00 | 0.00 | 90 | 1007.5 |
| 20260505071542 | 57 | 98 | 0.0 | 2.0 | 0.00 | 0.00 | 0.00 | 90 | 1007.5 |
| 20260505070020 | 57 | 97 | 2.0 | 4.0 | 0.00 | 0.00 | 0.00 | 89 | 1007.6 |
| 20260505064524 | 56 | 95 | 2.0 | 7.0 | 0.00 | 0.00 | 0.00 | 89 | 1007.5 |
| 20260505063019 | 56 | 96 | 2.0 | 4.0 | 0.00 | 0.00 | 0.00 | 89 | 1007.5 |
| 20260505061519 | 56 | 96 | 1.0 | 3.0 | 0.00 | 0.00 | 0.00 | 89 | 1007.6 |
| 20260505060019 | 56 | 338 | 0.0 | 0.0 | 0.00 | 0.00 | 0.00 | 88 | 1007.6 |
| 20260505054517 | 56 | 338 | 1.0 | 2.0 | 0.00 | 0.00 | 0.00 | 88 | 1007.7 |